DateTimeUTC,F1_A11,F1_S11,BsB_S11,BsG_S11,BsR_S11,BbsB_S11,BbsG_S11,BbsR_S11,BaB_A11,BaG_A11,BaR_A11,Tu_S11,T_S11,Uu_S11,U_S11,P_S11,T1_A11
2021-05-10T13:00:00Z,00000200,21000000,,,,,,,0000.12,0000.21,-000.16,16.6,23.4,00.3,00.2,0664.8,30.9
2021-05-10T13:01:00Z,00000200,21000000,,,,,,,0000.24,0000.13,0000.23,16.6,23.4,00.3,00.2,0664.8,30.9
2021-05-10T13:02:00Z,00000200,21000000,,,,,,,-000.19,-000.10,0000.04,16.6,23.4,00.3,00.2,0664.8,30.9
2021-05-10T13:03:00Z,00000200,61000000,,,,,,,0000.81,0000.86,0000.53,16.6,23.4,00.3,00.2,0664.8,30.9
2021-05-10T13:04:00Z,00000200,41000000,0000.83,0000.79,0000.73,0000.44,0000.29,0000.27,0000.76,0000.49,0000.54,16.8,23.3,00.5,00.3,0665.8,30.9
2021-05-10T13:05:00Z,00000200,01000000,0001.38,0001.18,0000.60,-000.06,0000.15,0000.17,0000.29,0000.49,0000.39,16.8,23.2,00.6,00.4,0665.8,30.9
2021-05-10T13:06:00Z,00000200,01000000,0001.39,0001.10,0000.90,0000.01,0000.22,0000.00,0000.96,0000.38,0000.03,16.8,23.2,00.5,00.3,0665.9,30.9
2021-05-10T13:07:00Z,00000200,01000000,0002.34,0001.33,0000.44,-000.10,0000.33,-000.16,0000.73,0000.91,0000.76,16.8,23.2,00.7,00.4,0665.9,30.9
2021-05-10T13:08:00Z,00000200,01000000,0002.29,0000.85,0000.59,-000.01,0000.05,-000.01,0000.73,0000.51,0000.65,16.8,23.2,00.7,00.4,0665.9,30.9
2021-05-10T13:09:00Z,00000200,01000000,0001.78,0001.08,0000.53,0000.46,0000.23,0000.21,0000.40,0000.71,0000.15,16.8,23.2,00.7,00.5,0665.8,30.9
2021-05-10T13:10:00Z,00000200,01000000,0001.53,0000.87,0000.55,0000.21,0000.07,0000.17,0000.54,0000.21,0000.34,16.8,23.2,00.7,00.5,0665.8,30.8
2021-05-10T13:11:00Z,00000200,01000000,0001.57,0000.77,0000.53,0000.35,0000.14,0000.16,0000.73,0000.72,0000.40,16.8,23.1,00.7,00.5,0665.9,30.8
2021-05-10T13:12:00Z,00000200,01000000,0001.52,0001.39,0000.59,0000.31,0000.35,0000.20,0000.81,0000.86,0000.66,16.8,23.1,00.7,00.5,0665.9,30.8
2021-05-10T13:13:00Z,00000200,01000000,0001.58,0000.95,0000.68,-000.29,0000.18,0000.27,0000.48,0000.35,0000.18,16.8,23.1,00.8,00.5,0665.9,30.8
2021-05-10T13:14:00Z,00000200,01000000,0001.78,0000.86,0000.57,-000.36,0000.41,0000.23,0000.71,0000.87,0000.64,16.8,23.1,00.8,00.6,0665.9,30.8
2021-05-10T13:15:00Z,00000200,01000000,0001.48,0001.14,0000.78,0000.36,0000.33,0000.52,0000.57,0000.38,0000.27,16.8,23.1,00.8,00.5,0665.9,30.8
2021-05-10T13:16:00Z,00000200,01000000,0001.53,0001.04,0000.45,0000.24,0000.12,-000.03,0000.87,0000.39,0000.58,16.7,23.0,00.8,00.5,0665.8,30.8
2021-05-10T13:17:00Z,00000200,01000000,0001.23,0001.05,0000.69,0000.15,0000.38,0000.38,0000.64,0000.67,0000.72,16.7,23.0,00.8,00.6,0665.9,30.8
2021-05-10T13:18:00Z,00000200,01000000,0002.35,0001.06,0000.55,-000.22,0000.06,0000.16,0000.72,0000.57,0000.30,16.7,23.0,00.8,00.5,0665.8,30.8
2021-05-10T13:19:00Z,00000200,01000000,0001.74,0001.20,0000.76,0000.38,0000.28,0000.16,0000.79,0000.76,0000.25,16.7,23.0,00.8,00.6,0665.8,30.8
2021-05-10T13:20:00Z,00000200,01000000,0001.33,0000.81,0000.47,0000.34,0000.44,0000.05,0000.26,0000.26,0000.20,16.7,23.0,00.8,00.5,0665.8,30.8
2021-05-10T13:21:00Z,00000200,01000000,0001.91,0000.69,0000.39,-000.06,0000.24,0000.00,0000.71,0000.53,0000.62,16.7,22.9,00.8,00.6,0665.8,30.8
2021-05-10T13:22:00Z,00000200,01000000,0001.92,0001.37,0000.64,0000.43,0000.40,0000.19,0000.71,0000.55,0000.57,16.7,22.9,00.8,00.6,0665.8,30.8
2021-05-10T13:23:00Z,00000200,01000000,0001.47,0000.89,0000.77,0000.28,0000.26,-000.13,0000.42,0000.64,0000.39,16.7,22.9,00.9,00.6,0665.8,30.8
2021-05-10T13:24:00Z,00000200,01000000,0001.24,0001.00,0000.61,-000.01,-000.01,0000.06,0000.68,0000.70,0000.19,16.6,22.9,00.9,00.6,0665.8,30.8
2021-05-10T13:25:00Z,00000200,01000000,0001.87,0001.17,0000.48,0000.32,0000.19,0000.13,0000.53,0000.46,0000.17,16.6,22.9,00.9,00.6,0665.8,30.8
2021-05-10T13:26:00Z,00000200,01000000,0001.11,0000.60,0000.40,0000.26,0000.36,0000.31,0000.91,0000.66,0000.47,16.6,22.9,00.9,00.6,0665.8,30.8
2021-05-10T13:27:00Z,00000200,01000000,0001.41,0001.18,0000.59,-000.44,0000.25,0000.12,0000.40,0000.37,0000.53,16.6,22.9,00.9,00.6,0665.8,30.8
2021-05-10T13:28:00Z,00000200,01000000,0001.83,0000.72,0000.64,0000.43,0000.12,0000.14,0000.67,0000.73,0000.83,16.7,22.9,01.1,00.7,0665.8,30.9
2021-05-10T13:29:00Z,00000200,01000000,0001.54,0000.83,0000.45,0000.11,0000.07,-000.10,0000.77,0000.51,0000.28,16.8,23.0,00.9,00.6,0665.8,30.9
2021-05-10T13:30:00Z,00000200,01000000,0001.36,0000.77,0000.51,-000.53,0000.18,0000.15,0000.47,0000.70,0000.13,16.8,23.0,01.0,00.7,0665.8,30.9
2021-05-10T13:31:00Z,00000200,01000000,0001.33,0000.93,0000.65,-000.34,0000.04,0000.23,0000.77,0000.17,0000.47,16.8,23.0,00.9,00.6,0665.8,30.9
2021-05-10T13:32:00Z,00000200,01000000,0001.28,0001.06,0000.63,0000.32,0000.41,0000.05,0000.32,0000.67,0000.51,16.8,23.0,00.9,00.6,0665.8,30.9
2021-05-10T13:33:00Z,00000200,01000000,0002.19,0000.67,0000.68,0000.51,-000.06,0000.05,0000.51,0000.69,0000.56,16.8,23.0,01.0,00.7,0665.8,30.8
2021-05-10T13:34:00Z,00000200,01000000,0001.43,0000.85,0000.49,-000.45,0000.33,0000.31,0000.86,0000.53,0000.27,16.8,22.9,01.0,00.6,0665.8,30.8
2021-05-10T13:35:00Z,00000200,01000000,0001.91,0001.14,0000.63,0000.38,0000.11,0000.21,0000.57,0000.59,0000.53,16.7,23.0,01.0,00.7,0665.8,30.8
2021-05-10T13:36:00Z,00000200,01000000,0001.66,0001.09,0000.86,0000.05,0000.31,0000.31,0000.47,0000.51,0000.06,16.7,22.9,01.0,00.6,0665.8,30.8
2021-05-10T13:37:00Z,00000200,01000000,0001.67,0001.14,0000.94,0000.05,0000.28,-000.10,0000.07,0000.31,0000.41,16.7,22.9,01.0,00.7,0665.8,30.8
2021-05-10T13:38:00Z,00000200,01000000,0001.84,0000.88,0000.71,0000.18,0000.17,0000.15,0001.18,0000.38,0000.21,16.7,22.9,00.9,00.6,0665.8,30.8
2021-05-10T13:39:00Z,00000200,01000000,0001.53,0001.26,0000.58,0000.68,0000.24,0000.26,0000.65,0000.76,0000.68,16.7,22.9,01.0,00.7,0665.8,30.8
2021-05-10T13:40:00Z,00000200,01000000,0001.74,0000.95,0000.79,0000.18,-000.03,0000.60,0000.78,0000.40,0000.23,16.6,22.8,01.0,00.7,0665.8,30.8
2021-05-10T13:41:00Z,00000200,01000000,0001.00,0000.93,0000.69,0000.09,0000.22,0000.26,0000.53,0000.80,0000.70,16.6,22.8,01.0,00.7,0665.8,30.8
2021-05-10T13:42:00Z,00000200,01010000,0002.48,0000.83,0000.33,-000.07,0000.37,-000.11,0000.39,0000.17,0000.32,16.7,22.9,01.0,00.7,0665.7,30.8
2021-05-10T13:43:00Z,00000200,01000000,0002.10,0000.79,0000.56,-000.17,0000.17,0000.29,0001.00,0001.03,0000.64,16.8,22.9,01.1,00.7,0665.8,30.9
2021-05-10T13:44:00Z,00000200,01000000,0001.43,0000.99,0000.39,0000.35,0000.24,0000.26,0000.26,0000.72,0000.22,16.8,23.0,01.1,00.7,0665.8,30.9
2021-05-10T13:45:00Z,00000200,01000000,0001.33,0000.94,0000.74,-000.15,0000.35,0000.30,0000.79,0000.23,0000.25,16.8,23.0,01.1,00.7,0665.8,30.9
2021-05-10T13:46:00Z,00000200,01000000,0001.96,0001.00,0000.54,-000.01,0000.28,0000.03,0000.60,0000.58,0000.39,16.9,23.0,01.0,00.7,0665.8,30.9
2021-05-10T13:47:00Z,00000200,01000000,0001.80,0000.99,0000.72,-000.11,0000.36,0000.20,0000.40,0000.64,0000.48,16.9,23.0,01.1,00.8,0665.8,30.9
2021-05-10T13:48:00Z,00000200,01000000,0001.81,0000.77,0000.62,0000.17,0000.56,0000.12,0000.31,0000.17,0000.45,16.9,23.0,01.0,00.7,0665.8,30.9
2021-05-10T13:49:00Z,00000200,01000000,0002.10,0001.08,0000.47,-000.20,0000.19,0000.00,0000.90,0000.67,0000.70,16.8,23.0,01.0,00.7,0665.8,30.8
2021-05-10T13:50:00Z,00000200,01000000,0001.47,0000.88,0000.53,-000.27,0000.43,0000.15,0000.68,0000.53,0000.23,16.8,22.9,01.0,00.7,0665.8,30.8
2021-05-10T13:51:00Z,00000200,01000000,0001.10,0000.90,0000.63,0000.09,0000.22,0000.16,0000.35,0000.48,0000.21,16.8,22.9,01.0,00.7,0665.8,30.8
2021-05-10T13:52:00Z,00000200,01000000,0001.79,0001.11,0000.57,0000.28,0000.49,0000.08,0001.05,0000.92,0000.51,16.8,22.9,01.0,00.7,0665.8,30.8
2021-05-10T13:53:00Z,00000200,01000000,0001.11,0001.06,0000.88,0000.19,0000.31,0000.09,0000.66,0000.23,0000.50,16.7,22.9,01.2,00.8,0665.7,30.8
2021-05-10T13:54:00Z,00000200,01000000,0002.05,0000.88,0000.62,0000.30,0000.33,0000.16,0000.51,0000.96,0000.24,16.7,22.9,01.0,00.7,0665.7,30.8
2021-05-10T13:55:00Z,00000200,01000000,0001.22,0000.90,0000.37,0000.56,0000.21,0000.03,0000.53,0000.08,0000.68,16.7,22.9,01.1,00.8,0665.7,30.8
2021-05-10T13:56:00Z,00000200,01000000,0001.37,0000.97,0000.45,-000.25,0000.04,-000.12,0000.49,0000.50,0000.34,16.7,22.8,01.0,00.7,0665.7,30.8
2021-05-10T13:57:00Z,00000200,41000000,,,,,,,0000.01,0000.23,-000.32,16.7,22.9,00.9,00.6,0665.7,30.8
2021-05-10T13:58:00Z,00000200,61000000,,,,,,,0000.09,-000.18,0000.06,16.5,23.1,00.8,00.6,0664.7,30.9
2021-05-10T13:59:00Z,00000200,21000000,,,,,,,-000.06,0000.05,0000.20,16.6,23.2,00.9,00.6,0664.7,30.9
